Casitas Lake Weather Center

Moon Phase Calendar



Casitas Lake Water Level
Online Cameras

 


      

Current Conditions in Oak View
2/23/2024 1:41:03 AM

52°F
Feels Like 51
Clouds
Humidity
78%
Pressure
30.12"
Wind
4.7 mph (N)
Dew Point
45°F
UV Index
0/10 (Low)
Visibility
6 mi

Hourly Forecast

Date & Time Fri, Feb 23
1:00 AM
Fri, Feb 23
2:00 AM
Fri, Feb 23
3:00 AM
Fri, Feb 23
4:00 AM
Fri, Feb 23
5:00 AM
Fri, Feb 23
6:00 AM
Fri, Feb 23
7:00 AM
Fri, Feb 23
8:00 AM
Fri, Feb 23
9:00 AM
Fri, Feb 23
10:00 AM
Fri, Feb 23
11:00 AM
Fri, Feb 23
12:00 PM
Fri, Feb 23
1:00 PM
Fri, Feb 23
2:00 PM
Fri, Feb 23
3:00 PM
Fri, Feb 23
4:00 PM
Fri, Feb 23
5:00 PM
Fri, Feb 23
6:00 PM
Fri, Feb 23
7:00 PM
Fri, Feb 23
8:00 PM
Fri, Feb 23
9:00 PM
Fri, Feb 23
10:00 PM
Fri, Feb 23
11:00 PM
Sat, Feb 24
12:00 AM
Sat, Feb 24
1:00 AM
Sat, Feb 24
2:00 AM
Sat, Feb 24
3:00 AM
Sat, Feb 24
4:00 AM
Sat, Feb 24
5:00 AM
Sat, Feb 24
6:00 AM
Sat, Feb 24
7:00 AM
Sat, Feb 24
8:00 AM
Sat, Feb 24
9:00 AM
Sat, Feb 24
10:00 AM
Sat, Feb 24
11:00 AM
Sat, Feb 24
12:00 PM
Sat, Feb 24
1:00 PM
Sat, Feb 24
2:00 PM
Sat, Feb 24
3:00 PM
Sat, Feb 24
4:00 PM
Sat, Feb 24
5:00 PM
Sat, Feb 24
6:00 PM
Sat, Feb 24
7:00 PM
Sat, Feb 24
8:00 PM
Sat, Feb 24
9:00 PM
Sat, Feb 24
10:00 PM
Sat, Feb 24
11:00 PM
Sun, Feb 25
12:00 AM
Condition
Clouds

Clouds

Clouds

Clouds

Clouds

Clouds

Clouds

Clouds

Clouds

Clouds

Clouds

Clouds

Clouds

Clouds

Clouds

Clouds

Clouds

Clouds

Clouds

Clouds

Clouds

Clouds

Clouds

Clouds

Clouds

Clouds

Clouds

Clouds

Clouds

Clouds

Clouds

Clouds

Clouds

Clouds

Clouds

Clouds

Clouds

Clouds

Clouds

Clouds

Clouds

Clouds

Clouds

Clouds

Clouds

Clouds

Clouds

Clouds
Temperature 53°F52°F53°F53°F54°F55°F56°F58°F61°F65°F67°F68°F67°F67°F66°F66°F63°F59°F58°F57°F57°F57°F57°F57°F57°F56°F56°F57°F57°F57°F58°F60°F63°F65°F67°F67°F67°F66°F66°F64°F62°F58°F58°F57°F57°F57°F57°F56°F
Feels Like 51°F51°F51°F52°F52°F53°F54°F56°F60°F64°F65°F66°F65°F65°F64°F64°F62°F57°F56°F55°F55°F55°F55°F54°F54°F54°F54°F54°F55°F55°F56°F57°F61°F63°F65°F65°F65°F65°F64°F63°F61°F57°F56°F56°F55°F55°F55°F55°F
Cloudiness 95%95%95%96%98%99%100%100%100%100%100%100%100%100%100%100%44%36%26%20%19%26%87%89%91%92%90%91%100%100%100%100%100%100%75%56%39%30%27%26%15%13%11%13%20%33%100%100%
Visibility 6 mi6 mi6 mi6 mi6 mi6 mi6 mi6 mi6 mi6 mi6 mi6 mi6 mi6 mi6 mi6 mi6 mi6 mi6 mi6 mi6 mi6 mi6 mi6 mi6 mi6 mi6 mi6 mi6 mi6 mi6 mi6 mi6 mi6 mi6 mi6 mi6 mi6 mi6 mi6 mi6 mi6 mi6 mi6 mi6 mi6 mi6 mi6 mi
Precipitation 0%0%0%0%0%0%0%0%0%0%0%0%0%0%0%0%0%0%0%0%0%0%0%0%0%0%0%0%0%0%0%0%0%0%0%0%0%0%0%0%0%0%0%0%0%0%0%0%
Humidity 75%78%74%70%66%60%57%56%54%42%39%37%39%41%46%45%53%57%58%56%53%52%51%51%50%50%49%48%47%48%47%48%42%38%38%41%43%44%46%50%61%67%67%65%64%63%63%63%
Dew Point 45°F45°F45°F44°F43°F41°F38°F40°F42°F39°F38°F37°F38°F39°F42°F41°F44°F42°F40°F39°F38°F37°F36°F36°F36°F36°F35°F35°F35°F35°F35°F37°F37°F37°F37°F39°F40°F40°F41°F43°F46°F45°F44°F43°F42°F42°F42°F42°F
Pressure 30.12"30.12"30.12"30.12"30.09"30.09"30.09"30.09"30.06"30.06"30.06"30.03"30.03"30"30"30"30"30.03"30.03"30.06"30.06"30.06"30.03"30.03"30.03"30.03"30.03"30"30.03"30.03"30.03"30.06"30.06"30.03"30.03"30.06"30.03"30"30"30"30"30.03"30.06"30.06"30.06"30.06"30.06"30.06"
Wind Speed 4.8 mph4.7 mph4.9 mph4.7 mph6.2 mph5.8 mph5.7 mph5.3 mph3.6 mph3 mph4.5 mph4.9 mph3.4 mph2.1 mph2.5 mph1 mph1.2 mph3.2 mph6 mph6.2 mph5.9 mph5.3 mph5.7 mph5.3 mph5.1 mph5.3 mph5.5 mph5.8 mph5.3 mph4.4 mph4.5 mph4 mph3.9 mph5.5 mph6.2 mph7 mph5 mph5.4 mph5.1 mph4.4 mph3 mph0.3 mph2.2 mph3 mph3.6 mph3.6 mph3.1 mph3.3 mph
Wind
Direction

N

N

N

N
14°
NNE
18°
NNE
24°
NNE
28°
NNE
46°
NE
86°
E
100°
E
117°
ESE
135°
SE
165°
SSE
241°
WSW
281°
W
270°
W
327°
NNW
349°
N

N
10°
N

N

N
10°
N
22°
NNE
28°
NNE
35°
NE
37°
NE
33°
NNE
36°
NE
39°
NE
56°
NE
105°
ESE
121°
ESE
158°
SSE
177°
S
179°
S
185°
S
185°
S
184°
S
198°
SSW
69°
ENE
24°
NNE
39°
NE
46°
NE
55°
NE
64°
ENE
56°
NE

Daily Forecast

Date High Low Precip. Humidity
Today
Feb 23

Clouds
68 °F
52 °F
0%
37%
Saturday
Feb 24

Clouds
67 °F
56 °F
0%
41%
Sunday
Feb 25

Clouds
64 °F
55 °F
0%
49%
Monday
Feb 26

Rain
59 °F
55 °F
100%
81%
Tuesday
Feb 27

Rain
61 °F
50 °F
93%
48%
Wednesday
Feb 28

Clear
62 °F
50 °F
0%
39%
Thursday
Feb 29

Clear
65 °F
53 °F
0%
45%
Friday
Mar 1

Clouds
65 °F
55 °F
0%
48%
Saturday
Mar 2

Rain
54 °F
46 °F
100%
94%
Sunday
Mar 3

Clear
58 °F
42 °F
1%
43%
Monday
Mar 4

Clear
65 °F
50 °F
0%
37%
Tuesday
Mar 5

Rain
60 °F
52 °F
20%
57%
Wednesday
Mar 6

Rain
60 °F
52 °F
84%
67%
Thursday
Mar 7

Rain
61 °F
52 °F
62%
71%
Friday
Mar 8

Clouds
60 °F
52 °F
0%
77%
Saturday
Mar 9

Clouds
59 °F
53 °F
0%
78%

Temperature 8-14 Day Outlook



Precipitation 8-14 Day Outlook




Quick Links
Casitas Lake News
Casitas Lake Photos
Casitas Lake Videos




About Us
Contact Us
Site Map
Search Site
Advertise With Us
   
Casitas.USLakes.info
THE CASITAS LAKE WEBSITE

Copyright 2024, Lakes Online
Privacy    |    Legal